Regional Weather Roundup
Issued by NWS

Home | Current Version | Previous Version | Graphics & Text | Print | Product List | Glossary On
Versions: 1 2 3 4 5 6 7 8 9 10 11 12 13 14 15 16 17 18 19 20 21 22 23 24 25 26 27 28 29 30 31 32 33 34 35 36 37 38 39 40 41 42 43 44 45 46 47 48 49 50
000
ASUS43 KOAX 172302
RWRNE

WEATHER ROUNDUP FOR NEBRASKA
NATIONAL WEATHER SERVICE OMAHA NE
500 PM CST FRI NOV 17 2017

NOTES: SATELLITE DATA IS BEING USED TO AUGMENT CLOUD COVER ABOVE
       12000 FEET.
       "FAIR" INDICATES FEW OR NO CLOUDS BELOW 12,000 FEET WITH NO
       SIGNIFICANT WEATHER AND/OR OBSTRUCTIONS TO VISIBILITY.


NEZ001>004-019>022-054>056-180000-
NEBRASKA PANHANDLE

CITY           SKY/WX    TMP DP  RH WIND       PRES   REMARKS
SCOTTSBLUFF    LGT RAIN  46  37  71 W3        29.64R
ALLIANCE       CLOUDY    40  38  93 E3        29.63R
CHADRON        LGT RAIN  42  37  82 NW5       29.64R
GORDON         CLOUDY    42  30  63 CALM      29.65R
KIMBALL        LGT RAIN  43  42  95 N10       29.64S
SIDNEY         MOCLDY    47  36  65 N14       29.63S
$$

NEZ057>060-069>072-079>082-180000-
SOUTHWEST NEBRASKA

CITY           SKY/WX    TMP DP  RH WIND       PRES   REMARKS
NORTH PLATTE   CLEAR     52  32  46 N16       29.59R
LEXINGTON      PTCLDY    50  33  51 N10       29.58R
MCCOOK         PTCLDY    55  33  43 NE12      29.55R
OGALLALA       MOCLDY    56  31  39 N9        29.61R
$$

NEZ005>010-023>029-035>040-094-180000-
NORTH CENTRAL NEBRASKA

CITY           SKY/WX    TMP DP  RH WIND       PRES   REMARKS
VALENTINE      CLOUDY    45  33  63 NE7       29.64R
AINSWORTH      CLOUDY    41  38  89 E3        29.61F
BROKEN BOW     PTCLDY    49  33  54 N17G24    29.58R
O`NEILL        LGT RAIN  43  38  83 N13       29.62F
ORD            CLOUDY    49  34  56 N18G26    29.58R
THEDFORD       CLOUDY    46  36  68 NE9       29.63S
$$

NEZ041-046>049-061>064-073>077-083>087-180000-
SOUTH CENTRAL NEBRASKA

CITY           SKY/WX    TMP DP  RH WIND       PRES   REMARKS
GRAND ISLAND   PTCLDY    49  35  58 NE8       29.56R
AURORA         CLEAR     49  34  56 N5        29.55R
HASTINGS       CLEAR     50  34  54 NE8       29.56R
HEBRON         CLEAR     60  49  66 N8        29.50S
HOLDREGE       PTCLDY    50  35  56 N9        29.55S
KEARNEY        CLOUDY    48  34  58 N9        29.56R
$$

NEZ011>018-030>034-042>045-180000-
NORTHEAST NEBRASKA

CITY           SKY/WX    TMP DP  RH WIND       PRES   REMARKS
NORFOLK        CLOUDY    47  37  68 N15       29.55R
ALBION         CLOUDY    48  36  61 N13       29.57R
BLAIR          CLOUDY    56  45  66 N10       29.52R
COLUMBUS       CLOUDY    49  35  58 N9        29.56R
FREMONT        CLOUDY    54  40  59 N5        29.53S
TEKAMAH        PTCLDY    53  41  63 N9        29.53R
WAYNE          MOCLDY    47  37  68 NW7       29.57S
$$

NEZ050>053-065>068-078-088>093-180000-
SOUTHEAST NEBRASKA

CITY           SKY/WX    TMP DP  RH WIND       PRES   REMARKS
LINCOLN        CLEAR     57  48  72 N9        29.52R
OMAHA EPPLEY   CLOUDY    58  52  80 N7        29.51S FOG
BEATRICE       CLEAR     61  51  69 N8        29.49R
FALLS CITY     CLEAR     61  55  81 E7        29.47S
NEBRASKA CITY  CLOUDY    64  58  82 N6        29.49S
PLATTSMOUTH    CLOUDY    61  56  85 N3        29.50R
$$

NEZ044-045-051>053-067-180000-
OMAHA AREA

CITY           SKY/WX    TMP DP  RH WIND       PRES   REMARKS
OMAHA EPPLEY   CLOUDY    58  52  80 N7        29.51S FOG
BLAIR          CLOUDY    56  45  66 N10       29.52R
FREMONT        CLOUDY    54  40  59 N5        29.53S
MILLARD        CLOUDY    61  53  74 N3        29.51S
OFFUTT AFB     CLOUDY    59  53  82 NE5       29.51R
PLATTSMOUTH    CLOUDY    61  56  85 N3        29.50R
WAHOO          CLOUDY    55  41  58 N10       29.52S
$$




USA.gov is the U.S. government's official web portal to all federal, state and local government web resources and services.